TimePST,TemperatureF,Dew PointF,Humidity,Sea Level PressureIn,VisibilityMPH,Wind Direction,Wind SpeedMPH,Gust SpeedMPH,PrecipitationIn,Events,Conditions,WindDirDegrees,DateUTC
12:53 AM,43.0,37.9,82,30.19,10.0,South,6.9,-,N/A,,Overcast,170,2012-12-06 08:53:00
1:53 AM,43.0,37.9,82,30.19,10.0,South,9.2,-,0.00,Rain,Light Rain,190,2012-12-06 09:53:00
2:53 AM,43.0,37.9,82,30.18,10.0,South,10.4,-,0.00,,Mostly Cloudy,180,2012-12-06 10:53:00
3:53 AM,43.0,37.0,80,30.17,10.0,South,12.7,-,0.00,Rain,Light Rain,180,2012-12-06 11:53:00
4:07 AM,42.8,37.4,81,30.16,10.0,South,11.5,-,0.00,,Overcast,180,2012-12-06 12:07:00
4:53 AM,43.0,37.9,82,30.16,10.0,SSW,8.1,-,0.01,Rain,Light Rain,200,2012-12-06 12:53:00
5:53 AM,43.0,37.0,80,30.13,10.0,South,12.7,-,0.00,,Mostly Cloudy,180,2012-12-06 13:53:00
6:53 AM,43.0,37.0,80,30.13,10.0,South,12.7,-,0.00,Rain,Light Rain,180,2012-12-06 14:53:00
7:37 AM,42.8,37.4,81,30.11,10.0,South,11.5,-,0.01,Rain,Light Rain,180,2012-12-06 15:37:00
7:53 AM,43.0,37.9,82,30.12,10.0,South,13.8,-,0.01,,Overcast,180,2012-12-06 15:53:00
8:49 AM,42.8,37.4,81,30.11,10.0,South,18.4,-,0.00,,Overcast,190,2012-12-06 16:49:00
8:53 AM,43.0,37.9,82,30.12,10.0,South,16.1,23.0,0.00,,Overcast,190,2012-12-06 16:53:00
9:53 AM,44.1,37.9,79,30.12,10.0,South,16.1,23.0,0.00,Rain,Light Rain,190,2012-12-06 17:53:00
10:53 AM,43.0,39.0,86,30.12,10.0,South,15.0,-,0.04,Rain,Light Rain,180,2012-12-06 18:53:00
11:53 AM,43.0,39.9,89,30.11,4.0,SSW,11.5,20.7,0.04,Rain,Light Rain,210,2012-12-06 19:53:00
12:53 PM,43.0,39.9,89,30.09,5.0,SSW,13.8,-,0.05,Rain,Light Rain,200,2012-12-06 20:53:00
12:54 PM,42.8,39.2,87,30.08,9.0,SSW,12.7,19.6,0.01,Rain,Light Rain,200,2012-12-06 20:54:00
1:13 PM,44.6,39.2,81,30.07,10.0,South,15.0,-,0.01,,Overcast,190,2012-12-06 21:13:00
1:53 PM,44.1,39.9,85,30.08,9.0,South,13.8,-,0.01,Rain,Light Rain,190,2012-12-06 21:53:00
2:08 PM,44.6,41.0,87,30.07,8.0,SSW,10.4,-,0.01,Rain,Light Rain,200,2012-12-06 22:08:00
2:21 PM,44.6,41.0,87,30.08,4.0,SW,5.8,-,0.04,Rain,Light Rain,230,2012-12-06 22:21:00
2:33 PM,42.8,41.0,93,30.07,4.0,SSW,9.2,-,0.06,Rain,Light Rain,210,2012-12-06 22:33:00
2:53 PM,44.1,39.9,85,30.07,6.0,SSW,9.2,17.3,0.06,,Overcast,210,2012-12-06 22:53:00
3:00 PM,44.6,39.2,81,30.06,10.0,SSW,9.2,-,N/A,,Overcast,200,2012-12-06 23:00:00
3:53 PM,44.1,39.9,85,30.06,10.0,SSW,13.8,-,N/A,,Mostly Cloudy,200,2012-12-06 23:53:00
4:53 PM,43.0,39.0,86,30.08,10.0,SSW,10.4,-,N/A,,Mostly Cloudy,210,2012-12-07 00:53:00
5:53 PM,43.0,39.0,86,30.08,10.0,SSW,10.4,-,N/A,,Mostly Cloudy,210,2012-12-07 01:53:00
6:53 PM,43.0,39.0,86,30.09,10.0,SW,5.8,-,N/A,,Scattered Clouds,230,2012-12-07 02:53:00
7:53 PM,43.0,39.0,86,30.11,10.0,Calm,Calm,-,N/A,,Scattered Clouds,0,2012-12-07 03:53:00
8:00 PM,42.8,39.2,87,30.10,10.0,Calm,Calm,-,N/A,,Mostly Cloudy,0,2012-12-07 04:00:00
8:53 PM,43.0,39.0,86,30.13,10.0,South,6.9,-,N/A,,Mostly Cloudy,190,2012-12-07 04:53:00
9:23 PM,42.8,39.2,87,30.12,10.0,South,5.8,-,N/A,,Scattered Clouds,190,2012-12-07 05:23:00
9:53 PM,43.0,39.0,86,30.12,10.0,South,9.2,-,N/A,,Scattered Clouds,180,2012-12-07 05:53:00
10:53 PM,43.0,39.9,89,30.13,10.0,South,12.7,-,N/A,,Mostly Cloudy,190,2012-12-07 06:53:00
11:40 PM,42.8,39.2,87,30.11,10.0,South,11.5,-,N/A,,Overcast,190,2012-12-07 07:40:00
11:53 PM,43.0,39.0,86,30.12,10.0,South,10.4,-,0.00,Rain,Light Rain,190,2012-12-07 07:53:00